2010 NV1

Japanese version
Home page
Updated on December 7, 2011

---------------------------------------------------------------------

* Profile

Discovery Date July 1, 2010
Magnitude 20 mag
Discoverer Wide Field Infrared Survey Explorer (NASA)

* Pictures

* Orbital Elements

The following orbital elements are taken from MPO208308

Epoch 2011 Aug. 27.0 TT = JDT 2455800.5                 MPC
M   0.05123              (2000.0)            P               Q
n   0.00019910     Peri.  132.90798     +0.88416888     +0.16377158
a 290.4609723      Node   136.21294     -0.24059883     -0.64315019
e   0.9675794      Incl.  140.78195     +0.40044674     -0.74802186
P4950              H   10.5           G   0.15           U   0
From 90 observations at 3 oppositions, 2009-2011, mean residual 0".45.

* Magnitudes Graph

        H = 10.3  G = 0.15

---------------------------------------------------------------------

The orbital elements are published at the MPC Ephemerides and Orbital Elements.
The magnitudes graphs are made with Comet for Windows.

---------------------------------------------------------------------

Copyright(C) Seiichi Yoshida (comet@aerith.net). All rights reserved.